Time,TemperatureF,DewpointF,PressureIn,WindDirection,WindDirectionDegrees,WindSpeedMPH,WindSpeedGustMPH,Humidity,HourlyPrecipIn,Conditions,Clouds,dailyrainin,SoftwareType,DateUTC
2013-07-21 00:01:00,54.5,47.7,30.19,WNW,293,0.0,0.0,78,0.00,,,0.00,WUHU216HW,2013-07-21 04:01:00,
2013-07-21 00:02:00,54.5,47.7,30.19,WNW,293,0.0,0.0,78,0.00,,,0.00,WUHU216HW,2013-07-21 04:02:00,
2013-07-21 00:08:00,54.6,47.5,30.18,WSW,248,0.0,0.0,77,0.00,,,0.00,WUHU216HW,2013-07-21 04:08:00,
2013-07-21 00:13:00,54.6,47.5,30.19,West,270,0.0,0.0,77,0.00,,,0.00,WUHU216HW,2013-07-21 04:13:00,
2013-07-21 00:18:00,54.5,47.5,30.19,West,270,0.0,0.0,77,0.00,,,0.00,WUHU216HW,2013-07-21 04:18:00,
2013-07-21 00:23:00,54.3,47.5,30.19,West,270,0.0,0.0,78,0.00,,,0.00,WUHU216HW,2013-07-21 04:23:00,
2013-07-21 00:28:00,54.1,47.4,30.18,West,270,0.0,0.0,78,0.00,,,0.00,WUHU216HW,2013-07-21 04:28:00,
2013-07-21 00:33:00,54.1,47.7,30.19,West,270,0.0,0.0,79,0.00,,,0.00,WUHU216HW,2013-07-21 04:33:00,
2013-07-21 00:38:00,54.1,47.7,30.19,West,270,0.0,0.0,79,0.00,,,0.00,WUHU216HW,2013-07-21 04:38:00,
2013-07-21 00:43:00,53.9,47.6,30.19,NW,315,0.0,0.0,79,0.00,,,0.00,WUHU216HW,2013-07-21 04:43:00,
2013-07-21 00:48:00,53.7,47.4,30.19,WNW,293,0.0,0.0,79,0.00,,,0.00,WUHU216HW,2013-07-21 04:48:00,
2013-07-21 00:53:00,53.7,47.4,30.18,WNW,293,0.0,0.0,79,0.00,,,0.00,WUHU216HW,2013-07-21 04:53:00,
2013-07-21 00:58:00,54.1,47.7,30.18,WSW,248,0.0,0.0,79,0.00,,,0.00,WUHU216HW,2013-07-21 04:58:00,
2013-07-21 01:04:00,54.1,47.7,30.18,WNW,293,0.0,0.0,79,0.00,,,0.00,WUHU216HW,2013-07-21 05:04:00,
2013-07-21 01:09:00,53.9,47.6,30.18,North,0,0.0,0.0,79,0.00,,,0.00,WUHU216HW,2013-07-21 05:09:00,
2013-07-21 01:14:00,53.9,47.6,30.18,NNW,338,0.0,0.0,79,0.00,,,0.00,WUHU216HW,2013-07-21 05:14:00,
2013-07-21 01:19:00,53.4,47.1,30.18,NE,45,0.0,0.0,79,0.00,,,0.00,WUHU216HW,2013-07-21 05:19:00,
2013-07-21 01:24:00,53.4,47.4,30.18,NW,315,0.0,0.0,80,0.00,,,0.00,WUHU216HW,2013-07-21 05:24:00,
2013-07-21 01:29:00,53.4,47.4,30.19,NNW,338,0.0,0.0,80,0.00,,,0.00,WUHU216HW,2013-07-21 05:29:00,
2013-07-21 01:34:00,53.4,47.4,30.18,NNW,338,0.0,0.0,80,0.00,,,0.00,WUHU216HW,2013-07-21 05:34:00,
2013-07-21 01:39:00,53.2,47.3,30.18,West,270,0.0,0.0,80,0.00,,,0.00,WUHU216HW,2013-07-21 05:39:00,
2013-07-21 01:44:00,53.2,47.3,30.19,West,270,0.0,0.0,80,0.00,,,0.00,WUHU216HW,2013-07-21 05:44:00,
2013-07-21 01:50:00,53.2,47.6,30.19,West,270,0.0,0.0,81,0.00,,,0.00,WUHU216HW,2013-07-21 05:50:00,
2013-07-21 01:55:00,52.8,47.2,30.19,West,270,0.0,0.0,81,0.00,,,0.00,WUHU216HW,2013-07-21 05:55:00,
2013-07-21 02:00:00,52.8,47.5,30.19,NNE,23,0.0,0.0,82,0.00,,,0.00,WUHU216HW,2013-07-21 06:00:00,
2013-07-21 02:05:00,52.7,47.3,30.19,WNW,293,0.0,0.0,82,0.00,,,0.00,WUHU216HW,2013-07-21 06:05:00,
2013-07-21 02:10:00,52.3,47.3,30.19,West,270,0.0,0.0,83,0.00,,,0.00,WUHU216HW,2013-07-21 06:10:00,
2013-07-21 02:15:00,52.3,47.3,30.20,West,270,0.0,0.0,83,0.00,,,0.00,WUHU216HW,2013-07-21 06:15:00,
2013-07-21 02:20:00,52.1,47.1,30.20,West,270,0.0,0.0,83,0.00,,,0.00,WUHU216HW,2013-07-21 06:20:00,
2013-07-21 02:25:00,51.9,46.9,30.20,NNW,338,0.0,0.0,83,0.00,,,0.00,WUHU216HW,2013-07-21 06:25:00,
2013-07-21 02:31:00,51.6,47.0,30.20,West,270,0.0,0.0,84,0.00,,,0.00,WUHU216HW,2013-07-21 06:31:00,
2013-07-21 02:36:00,51.6,47.2,30.20,WSW,248,0.0,0.0,85,0.00,,,0.00,WUHU216HW,2013-07-21 06:36:00,
2013-07-21 02:41:00,51.6,47.2,30.20,NW,315,0.0,0.0,85,0.00,,,0.00,WUHU216HW,2013-07-21 06:41:00,
2013-07-21 02:46:00,51.6,47.5,30.20,NW,315,0.0,3.8,86,0.00,,,0.00,WUHU216HW,2013-07-21 06:46:00,
2013-07-21 02:51:00,51.8,47.6,30.20,West,270,0.0,3.8,86,0.00,,,0.00,WUHU216HW,2013-07-21 06:51:00,
2013-07-21 02:56:00,51.9,47.8,30.19,West,270,0.0,3.3,86,0.00,,,0.00,WUHU216HW,2013-07-21 06:56:00,
2013-07-21 03:01:00,52.1,48.0,30.20,WNW,293,0.0,3.3,86,0.00,,,0.00,WUHU216HW,2013-07-21 07:01:00,
2013-07-21 03:06:00,52.3,48.2,30.20,NNW,338,0.0,0.0,86,0.00,,,0.00,WUHU216HW,2013-07-21 07:06:00,
2013-07-21 03:11:00,52.3,48.2,30.20,NW,315,0.0,0.0,86,0.00,,,0.00,WUHU216HW,2013-07-21 07:11:00,
2013-07-21 03:17:00,52.5,48.4,30.19,NNW,338,0.0,0.0,86,0.00,,,0.00,WUHU216HW,2013-07-21 07:17:00,
2013-07-21 03:22:00,52.3,48.2,30.19,NW,315,0.0,0.0,86,0.00,,,0.00,WUHU216HW,2013-07-21 07:22:00,
2013-07-21 03:27:00,52.3,48.5,30.19,WNW,293,0.0,0.0,87,0.00,,,0.00,WUHU216HW,2013-07-21 07:27:00,
2013-07-21 03:32:00,52.1,48.3,30.19,West,270,0.0,0.0,87,0.00,,,0.00,WUHU216HW,2013-07-21 07:32:00,
2013-07-21 03:37:00,51.9,48.1,30.19,WNW,293,0.0,0.0,87,0.00,,,0.00,WUHU216HW,2013-07-21 07:37:00,
2013-07-21 03:42:00,51.9,48.1,30.20,SW,225,0.0,0.0,87,0.00,,,0.00,WUHU216HW,2013-07-21 07:42:00,
2013-07-21 03:47:00,51.8,47.8,30.19,WSW,248,0.0,0.0,87,0.00,,,0.00,WUHU216HW,2013-07-21 07:47:00,
2013-07-21 03:52:00,51.4,47.6,30.19,WNW,293,0.0,0.0,87,0.00,,,0.00,WUHU216HW,2013-07-21 07:52:00,
2013-07-21 03:58:00,51.4,47.6,30.19,WSW,248,0.0,0.0,87,0.00,,,0.00,WUHU216HW,2013-07-21 07:58:00,
2013-07-21 04:03:00,51.2,47.4,30.20,West,270,0.0,0.0,87,0.00,,,0.00,WUHU216HW,2013-07-21 08:03:00,
2013-07-21 04:08:00,51.2,47.7,30.19,West,270,0.0,0.0,88,0.00,,,0.00,WUHU216HW,2013-07-21 08:08:00,
2013-07-21 04:13:00,51.0,47.5,30.20,West,270,0.0,0.0,88,0.00,,,0.00,WUHU216HW,2013-07-21 08:13:00,
2013-07-21 04:18:00,51.0,47.5,30.20,West,270,0.0,0.0,88,0.00,,,0.00,WUHU216HW,2013-07-21 08:18:00,
2013-07-21 04:23:00,50.9,47.4,30.20,West,270,0.0,0.0,88,0.00,,,0.00,WUHU216HW,2013-07-21 08:23:00,
2013-07-21 04:28:00,50.9,47.4,30.20,WSW,248,0.0,0.0,88,0.00,,,0.00,WUHU216HW,2013-07-21 08:28:00,
2013-07-21 04:33:00,50.7,47.2,30.20,WNW,293,0.0,3.3,88,0.00,,,0.00,WUHU216HW,2013-07-21 08:33:00,
2013-07-21 04:39:00,50.7,47.2,30.19,West,270,0.0,3.3,88,0.00,,,0.00,WUHU216HW,2013-07-21 08:39:00,
2013-07-21 04:44:00,50.3,47.1,30.19,WSW,248,0.0,0.0,89,0.00,,,0.00,WUHU216HW,2013-07-21 08:44:00,
2013-07-21 04:49:00,50.3,47.1,30.19,WNW,293,0.0,0.0,89,0.00,,,0.00,WUHU216HW,2013-07-21 08:49:00,
2013-07-21 04:54:00,50.5,47.3,30.19,West,270,0.0,0.0,89,0.00,,,0.00,WUHU216HW,2013-07-21 08:54:00,
2013-07-21 04:59:00,50.5,47.3,30.19,WNW,293,0.0,0.0,89,0.00,,,0.00,WUHU216HW,2013-07-21 08:59:00,
2013-07-21 05:04:00,50.5,47.3,30.19,West,270,2.2,2.2,89,0.00,,,0.00,WUHU216HW,2013-07-21 09:04:00,
2013-07-21 05:09:00,50.5,47.6,30.19,WNW,293,0.0,2.6,90,0.00,,,0.00,WUHU216HW,2013-07-21 09:09:00,
2013-07-21 05:14:00,50.5,47.6,30.20,West,270,0.0,2.6,90,0.00,,,0.00,WUHU216HW,2013-07-21 09:14:00,
2013-07-21 05:19:00,50.5,47.6,30.19,WSW,248,0.0,0.0,90,0.00,,,0.00,WUHU216HW,2013-07-21 09:19:00,
2013-07-21 05:24:00,50.3,47.4,30.19,WNW,293,0.0,0.0,90,0.00,,,0.00,WUHU216HW,2013-07-21 09:24:00,
2013-07-21 05:30:00,50.1,47.3,30.20,West,270,0.0,0.0,90,0.00,,,0.00,WUHU216HW,2013-07-21 09:30:00,
2013-07-21 05:35:00,50.1,47.3,30.20,WSW,248,0.0,0.0,90,0.00,,,0.00,WUHU216HW,2013-07-21 09:35:00,
2013-07-21 05:40:00,50.1,47.3,30.20,West,270,0.0,3.5,90,0.00,,,0.00,WUHU216HW,2013-07-21 09:40:00,
2013-07-21 05:45:00,50.1,47.3,30.20,WNW,293,0.0,3.5,90,0.00,,,0.00,WUHU216HW,2013-07-21 09:45:00,
2013-07-21 05:50:00,50.1,47.3,30.20,West,270,0.0,0.0,90,0.00,,,0.00,WUHU216HW,2013-07-21 09:50:00,
2013-07-21 05:55:00,50.1,47.3,30.20,West,270,0.0,0.0,90,0.00,,,0.00,WUHU216HW,2013-07-21 09:55:00,
2013-07-21 06:00:00,50.1,47.3,30.21,West,270,0.0,0.0,90,0.00,,,0.00,WUHU216HW,2013-07-21 10:00:00,
2013-07-21 06:05:00,50.3,47.4,30.20,WSW,248,0.0,0.0,90,0.00,,,0.00,WUHU216HW,2013-07-21 10:05:00,
2013-07-21 06:10:00,50.5,47.6,30.20,WSW,248,0.0,0.0,90,0.00,,,0.00,WUHU216HW,2013-07-21 10:10:00,
2013-07-21 06:15:00,50.5,47.9,30.20,WSW,248,2.2,2.2,91,0.00,,,0.00,WUHU216HW,2013-07-21 10:15:00,
2013-07-21 06:21:00,50.5,47.9,30.21,WSW,248,0.0,2.2,91,0.00,,,0.00,WUHU216HW,2013-07-21 10:21:00,
2013-07-21 06:26:00,50.7,48.1,30.21,West,270,0.0,2.2,91,0.00,,,0.00,WUHU216HW,2013-07-21 10:26:00,
2013-07-21 06:31:00,50.7,48.1,30.21,WSW,248,0.0,0.0,91,0.00,,,0.00,WUHU216HW,2013-07-21 10:31:00,
2013-07-21 06:36:00,50.9,48.3,30.21,WSW,248,0.0,0.0,91,0.00,,,0.00,WUHU216HW,2013-07-21 10:36:00,
2013-07-21 06:41:00,51.2,48.9,30.20,West,270,0.8,0.8,92,0.00,,,0.00,WUHU216HW,2013-07-21 10:41:00,
2013-07-21 06:46:00,51.0,48.7,30.21,WSW,248,3.8,3.8,92,0.00,,,0.00,WUHU216HW,2013-07-21 10:46:00,
2013-07-21 06:51:00,51.2,48.9,30.21,West,270,0.0,3.8,92,0.00,,,0.00,WUHU216HW,2013-07-21 10:51:00,
2013-07-21 06:56:00,51.2,48.9,30.20,West,270,0.0,3.8,92,0.00,,,0.00,WUHU216HW,2013-07-21 10:56:00,
2013-07-21 07:01:00,51.6,49.3,30.21,West,270,0.0,1.3,92,0.00,,,0.00,WUHU216HW,2013-07-21 11:01:00,
2013-07-21 07:06:00,52.1,49.8,30.21,West,270,0.0,0.0,92,0.00,,,0.00,WUHU216HW,2013-07-21 11:06:00,
2013-07-21 07:12:00,52.5,50.5,30.21,WNW,293,0.0,1.5,93,0.00,,,0.00,WUHU216HW,2013-07-21 11:12:00,
2013-07-21 07:17:00,53.4,51.4,30.21,WSW,248,3.8,3.8,93,0.00,,,0.00,WUHU216HW,2013-07-21 11:17:00,
2013-07-21 07:22:00,54.6,52.6,30.21,WSW,248,4.2,4.2,93,0.00,,,0.00,WUHU216HW,2013-07-21 11:22:00,
2013-07-21 07:27:00,56.1,54.1,30.20,West,270,0.0,4.2,93,0.00,,,0.00,WUHU216HW,2013-07-21 11:27:00,
2013-07-21 07:32:00,57.0,55.7,30.20,WSW,248,0.0,3.5,93,0.00,,,0.00,WUHU216HW,2013-07-21 11:32:00,
2013-07-21 07:37:00,59.1,56.8,30.20,NE,45,9.1,9.1,92,0.00,,,0.00,WUHU216HW,2013-07-21 11:37:00,
2013-07-21 07:42:00,61.5,58.9,30.20,NE,45,9.8,10.5,91,0.00,,,0.00,WUHU216HW,2013-07-21 11:42:00,
2013-07-21 07:48:00,63.6,60.6,30.21,ENE,68,11.1,11.4,90,0.00,,,0.00,WUHU216HW,2013-07-21 11:48:00,
2013-07-21 07:53:00,64.9,60.6,30.21,ENE,68,9.8,11.4,86,0.00,,,0.00,WUHU216HW,2013-07-21 11:53:00,
2013-07-21 07:58:00,65.4,60.4,30.22,ENE,68,9.1,12.7,84,0.00,,,0.00,WUHU216HW,2013-07-21 11:58:00,
2013-07-21 08:03:00,65.6,60.3,30.22,NE,45,13.8,13.8,83,0.00,,,0.00,WUHU216HW,2013-07-21 12:03:00,
2013-07-21 08:08:00,65.8,60.1,30.22,ENE,68,11.8,13.8,82,0.00,,,0.00,WUHU216HW,2013-07-21 12:08:00,
2013-07-21 08:13:00,65.8,60.1,30.22,NE,45,11.8,11.8,82,0.00,,,0.00,WUHU216HW,2013-07-21 12:13:00,
2013-07-21 08:18:00,66.0,59.7,30.23,NE,45,12.0,12.5,80,0.00,,,0.00,WUHU216HW,2013-07-21 12:18:00,
2013-07-21 08:23:00,66.0,59.7,30.23,ENE,68,12.0,12.5,80,0.00,,,0.00,WUHU216HW,2013-07-21 12:23:00,
2013-07-21 08:28:00,66.3,60.0,30.23,ENE,68,12.5,12.5,80,0.00,,,0.00,WUHU216HW,2013-07-21 12:28:00,
2013-07-21 08:33:00,66.3,59.7,30.24,East,90,8.2,12.5,79,0.00,,,0.00,WUHU216HW,2013-07-21 12:33:00,
2013-07-21 08:39:00,66.5,60.2,30.24,ENE,68,12.0,12.5,80,0.00,,,0.00,WUHU216HW,2013-07-21 12:39:00,
2013-07-21 08:44:00,66.7,60.0,30.24,NE,45,9.1,12.7,79,0.00,,,0.00,WUHU216HW,2013-07-21 12:44:00,
2013-07-21 08:49:00,66.7,59.6,30.24,NE,45,11.8,12.7,78,0.00,,,0.00,WUHU216HW,2013-07-21 12:49:00,
2013-07-21 08:54:00,66.9,59.8,30.23,NE,45,15.2,15.2,78,0.00,,,0.00,WUHU216HW,2013-07-21 12:54:00,
2013-07-21 08:59:00,66.9,59.8,30.23,NE,45,6.2,15.2,78,0.00,,,0.00,WUHU216HW,2013-07-21 12:59:00,
2013-07-21 09:04:00,67.2,60.2,30.24,NE,45,11.8,15.2,78,0.00,,,0.00,WUHU216HW,2013-07-21 13:04:00,
2013-07-21 09:09:00,67.2,59.8,30.24,NE,45,10.5,12.0,77,0.00,,,0.00,WUHU216HW,2013-07-21 13:09:00,
2013-07-21 09:14:00,67.4,60.0,30.24,ENE,68,11.8,11.8,77,0.00,,,0.00,WUHU216HW,2013-07-21 13:14:00,
2013-07-21 09:20:00,67.6,60.2,30.24,ENE,68,10.0,11.8,77,0.00,,,0.00,WUHU216HW,2013-07-21 13:20:00,
2013-07-21 09:25:00,67.8,60.0,30.24,ENE,68,10.5,11.8,76,0.00,,,0.00,WUHU216HW,2013-07-21 13:25:00,
2013-07-21 09:30:00,67.8,60.0,30.25,ENE,68,8.5,11.8,76,0.00,,,0.00,WUHU216HW,2013-07-21 13:30:00,
2013-07-21 09:35:00,68.1,60.3,30.25,ENE,68,11.4,11.4,76,0.00,,,0.00,WUHU216HW,2013-07-21 13:35:00,
2013-07-21 09:40:00,68.3,60.5,30.25,ENE,68,9.6,11.4,76,0.00,,,0.00,WUHU216HW,2013-07-21 13:40:00,
2013-07-21 09:45:00,68.3,60.1,30.25,ENE,68,9.3,10.5,75,0.00,,,0.00,WUHU216HW,2013-07-21 13:45:00,
2013-07-21 09:50:00,68.5,60.2,30.25,ENE,68,7.6,10.5,75,0.00,,,0.00,WUHU216HW,2013-07-21 13:50:00,
2013-07-21 09:55:00,68.7,60.0,30.25,NE,45,10.5,10.9,74,0.00,,,0.00,WUHU216HW,2013-07-21 13:55:00,
2013-07-21 10:00:00,69.0,60.4,30.23,East,90,5.8,10.9,74,0.00,,,0.00,WUHU216HW,2013-07-21 14:00:00,
2013-07-21 10:05:00,69.4,60.3,30.20,ESE,113,5.8,9.3,73,0.00,,,0.00,WUHU216HW,2013-07-21 14:05:00,
2013-07-21 10:10:00,69.8,60.6,30.17,East,90,9.8,9.8,73,0.00,,,0.00,WUHU216HW,2013-07-21 14:10:00,
2013-07-21 10:16:00,70.1,60.6,30.17,ENE,68,6.4,9.8,72,0.00,,,0.00,WUHU216HW,2013-07-21 14:16:00,
2013-07-21 10:21:00,70.7,60.8,30.13,ENE,68,9.3,9.8,71,0.00,,,0.00,WUHU216HW,2013-07-21 14:21:00,
2013-07-21 10:26:00,71.0,61.1,30.12,ENE,68,8.5,9.3,71,0.00,,,0.00,WUHU216HW,2013-07-21 14:26:00,
2013-07-21 10:31:00,72.3,61.6,30.07,NE,45,4.4,8.5,69,0.00,,,0.00,WUHU216HW,2013-07-21 14:31:00,
2013-07-21 10:36:00,73.2,62.0,30.04,ENE,68,8.7,8.7,68,0.00,,,0.00,WUHU216HW,2013-07-21 14:36:00,
2013-07-21 10:41:00,74.4,62.3,30.01,ENE,68,4.2,8.7,66,0.00,,,0.00,WUHU216HW,2013-07-21 14:41:00,
2013-07-21 10:46:00,74.6,62.0,30.08,ENE,68,7.8,7.8,65,0.00,,,0.00,WUHU216HW,2013-07-21 14:46:00,
2013-07-21 10:51:00,74.1,61.8,30.05,ENE,68,7.6,7.8,65,0.00,,,0.00,WUHU216HW,2013-07-21 14:51:00,
2013-07-21 10:57:00,75.7,62.9,30.07,ENE,68,5.3,7.6,64,0.00,,,0.00,WUHU216HW,2013-07-21 14:57:00,
2013-07-21 11:02:00,76.2,62.9,30.06,ENE,68,8.2,8.2,63,0.00,,,0.00,WUHU216HW,2013-07-21 15:02:00,
2013-07-21 11:07:00,76.6,62.4,30.06,NE,45,6.0,8.2,61,0.00,,,0.00,WUHU216HW,2013-07-21 15:07:00,
2013-07-21 11:12:00,75.0,61.5,30.28,ENE,68,4.4,7.8,63,0.00,,,0.00,WUHU216HW,2013-07-21 15:12:00,
2013-07-21 11:17:00,76.6,62.1,30.29,NE,45,7.1,7.8,62,0.00,,,0.00,WUHU216HW,2013-07-21 15:17:00,
2013-07-21 11:22:00,75.5,61.6,30.29,ENE,68,5.3,7.6,62,0.00,,,0.00,WUHU216HW,2013-07-21 15:22:00,
2013-07-21 11:27:00,75.7,62.2,30.29,ENE,68,7.6,7.6,63,0.00,,,0.00,WUHU216HW,2013-07-21 15:27:00,
2013-07-21 11:32:00,75.7,61.7,30.29,ENE,68,4.4,7.6,62,0.00,,,0.00,WUHU216HW,2013-07-21 15:32:00,
2013-07-21 11:37:00,74.4,61.0,30.29,ENE,68,5.1,7.6,63,0.00,,,0.00,WUHU216HW,2013-07-21 15:37:00,
2013-07-21 11:43:00,74.8,61.8,30.29,NE,45,8.9,8.9,64,0.00,,,0.00,WUHU216HW,2013-07-21 15:43:00,
2013-07-21 11:48:00,76.6,62.6,30.28,ENE,68,6.4,8.9,62,0.00,,,0.00,WUHU216HW,2013-07-21 15:48:00,
2013-07-21 11:53:00,78.0,63.1,30.28,NE,45,8.5,9.1,60,0.00,,,0.00,WUHU216HW,2013-07-21 15:53:00,
2013-07-21 11:58:00,78.6,63.1,30.28,NE,45,6.7,9.1,59,0.00,,,0.00,WUHU216HW,2013-07-21 15:58:00,
2013-07-21 12:03:00,78.9,62.9,30.28,NE,45,8.2,8.5,58,0.00,,,0.00,WUHU216HW,2013-07-21 16:03:00,
2013-07-21 12:08:00,78.9,62.9,30.28,NE,45,8.9,8.9,58,0.00,,,0.00,WUHU216HW,2013-07-21 16:08:00,
2013-07-21 12:13:00,78.9,62.9,30.28,NE,45,9.6,9.6,58,0.00,,,0.00,WUHU216HW,2013-07-21 16:13:00,
2013-07-21 12:18:00,79.3,62.7,30.27,NE,45,8.9,9.6,57,0.00,,,0.00,WUHU216HW,2013-07-21 16:18:00,
2013-07-21 12:23:00,79.7,63.1,30.27,ENE,68,7.1,8.9,57,0.00,,,0.00,WUHU216HW,2013-07-21 16:23:00,
2013-07-21 12:28:00,80.4,63.2,30.27,NE,45,8.5,8.7,56,0.00,,,0.00,WUHU216HW,2013-07-21 16:28:00,
2013-07-21 12:33:00,80.7,63.5,30.27,NE,45,5.1,8.5,56,0.00,,,0.00,WUHU216HW,2013-07-21 16:33:00,
2013-07-21 12:38:00,81.3,63.5,30.27,NE,45,5.1,8.5,55,0.00,,,0.00,WUHU216HW,2013-07-21 16:38:00,
2013-07-21 12:43:00,81.6,63.3,30.27,NE,45,7.3,7.6,54,0.00,,,0.00,WUHU216HW,2013-07-21 16:43:00,
2013-07-21 12:48:00,81.6,63.3,30.27,NE,45,6.4,7.6,54,0.00,,,0.00,WUHU216HW,2013-07-21 16:48:00,
2013-07-21 12:53:00,81.6,63.3,30.26,NE,45,9.1,9.1,54,0.00,,,0.00,WUHU216HW,2013-07-21 16:53:00,
2013-07-21 12:59:00,81.6,63.3,30.26,NE,45,6.9,9.1,54,0.00,,,0.00,WUHU216HW,2013-07-21 16:59:00,
2013-07-21 13:04:00,81.6,63.3,30.26,ENE,68,8.2,8.2,54,0.00,,,0.00,WUHU216HW,2013-07-21 17:04:00,
2013-07-21 13:09:00,81.6,62.7,30.25,NE,45,9.1,9.1,53,0.00,,,0.00,WUHU216HW,2013-07-21 17:09:00,
2013-07-21 13:14:00,81.3,62.9,30.25,NE,45,4.4,9.6,54,0.00,,,0.00,WUHU216HW,2013-07-21 17:14:00,
2013-07-21 13:19:00,81.5,63.1,30.25,NE,45,6.2,9.6,54,0.00,,,0.00,WUHU216HW,2013-07-21 17:19:00,
2013-07-21 13:24:00,81.6,62.7,30.25,NE,45,9.8,9.8,53,0.00,,,0.00,WUHU216HW,2013-07-21 17:24:00,
2013-07-21 13:29:00,81.5,63.1,30.24,NE,45,8.7,9.8,54,0.00,,,0.00,WUHU216HW,2013-07-21 17:29:00,
2013-07-21 13:34:00,81.5,63.1,30.24,NE,45,5.8,9.8,54,0.00,,,0.00,WUHU216HW,2013-07-21 17:34:00,
2013-07-21 13:39:00,81.1,62.8,30.24,ENE,68,6.4,8.0,54,0.00,,,0.00,WUHU216HW,2013-07-21 17:39:00,
2013-07-21 13:44:00,81.3,62.9,30.24,NE,45,7.6,7.8,54,0.00,,,0.00,WUHU216HW,2013-07-21 17:44:00,
2013-07-21 13:49:00,81.5,62.4,30.24,NE,45,9.3,10.2,53,0.00,,,0.00,WUHU216HW,2013-07-21 17:49:00,
2013-07-21 13:55:00,81.3,62.9,30.24,NE,45,7.6,10.2,54,0.00,,,0.00,WUHU216HW,2013-07-21 17:55:00,
2013-07-21 14:00:00,81.6,63.3,30.24,NE,45,9.1,9.3,54,0.00,,,0.00,WUHU216HW,2013-07-21 18:00:00,
2013-07-21 14:05:00,81.3,62.7,30.23,ENE,68,8.7,9.6,53,0.00,,,0.00,WUHU216HW,2013-07-21 18:05:00,
2013-07-21 14:10:00,81.3,62.4,30.22,NE,45,5.1,9.6,53,0.00,,,0.00,WUHU216HW,2013-07-21 18:10:00,
2013-07-21 14:15:00,81.3,62.4,30.23,NE,45,9.6,9.6,53,0.00,,,0.00,WUHU216HW,2013-07-21 18:15:00,
2013-07-21 14:20:00,81.5,62.4,30.23,NE,45,6.2,9.6,53,0.00,,,0.00,WUHU216HW,2013-07-21 18:20:00,
2013-07-21 14:25:00,81.5,62.6,30.23,NE,45,8.5,8.9,53,0.00,,,0.00,WUHU216HW,2013-07-21 18:25:00,
2013-07-21 14:30:00,81.6,62.2,30.23,ENE,68,9.1,9.1,52,0.00,,,0.00,WUHU216HW,2013-07-21 18:30:00,
2013-07-21 14:35:00,81.6,62.2,30.23,ENE,68,9.1,9.1,53,0.00,,,0.00,WUHU216HW,2013-07-21 18:35:00,
2013-07-21 14:40:00,81.5,62.6,30.23,ENE,68,7.3,9.1,53,0.00,,,0.00,WUHU216HW,2013-07-21 18:40:00,
2013-07-21 14:45:00,81.6,62.2,30.24,ENE,68,6.4,9.1,52,0.00,,,0.00,WUHU216HW,2013-07-21 18:45:00,
2013-07-21 14:50:00,82.2,62.7,30.24,ENE,68,6.9,8.7,52,0.00,,,0.00,WUHU216HW,2013-07-21 18:50:00,
2013-07-21 14:55:00,82.5,63.1,30.23,NE,45,8.9,8.9,52,0.00,,,0.00,WUHU216HW,2013-07-21 18:55:00,
2013-07-21 15:00:00,82.9,62.4,30.23,NE,45,7.6,8.9,50,0.00,,,0.00,WUHU216HW,2013-07-21 19:00:00,
2013-07-21 15:05:00,83.6,63.1,30.23,NE,45,8.9,8.9,50,0.00,,,0.00,WUHU216HW,2013-07-21 19:05:00,
2013-07-21 15:10:00,84.3,63.2,30.23,NE,45,9.1,9.1,49,0.00,,,0.00,WUHU216HW,2013-07-21 19:10:00,
2013-07-21 15:15:00,84.7,62.9,30.22,NE,45,10.2,10.2,48,0.00,,,0.00,WUHU216HW,2013-07-21 19:15:00,
2013-07-21 15:20:00,84.0,62.2,30.22,NE,45,10.7,10.7,48,0.00,,,0.00,WUHU216HW,2013-07-21 19:20:00,
2013-07-21 15:25:00,84.0,62.8,30.23,NE,45,9.3,10.7,49,0.00,,,0.00,WUHU216HW,2013-07-21 19:25:00,
2013-07-21 15:31:00,83.8,62.0,30.22,ENE,68,8.2,10.7,48,0.00,,,0.00,WUHU216HW,2013-07-21 19:31:00,
2013-07-21 15:36:00,81.3,60.2,30.22,ENE,68,7.3,9.6,49,0.00,,,0.00,WUHU216HW,2013-07-21 19:36:00,
2013-07-21 15:41:00,78.9,59.8,30.22,ENE,68,10.7,10.7,52,0.00,,,0.00,WUHU216HW,2013-07-21 19:41:00,
2013-07-21 15:46:00,76.8,59.3,30.22,NE,45,6.0,10.7,55,0.00,,,0.00,WUHU216HW,2013-07-21 19:46:00,
2013-07-21 15:51:00,75.3,59.0,30.23,ENE,68,8.5,11.4,57,0.00,,,0.00,WUHU216HW,2013-07-21 19:51:00,
2013-07-21 15:56:00,75.3,60.0,30.22,NE,45,8.0,11.4,59,0.00,,,0.00,WUHU216HW,2013-07-21 19:56:00,
2013-07-21 16:01:00,76.1,60.2,30.22,NE,45,6.7,10.5,58,0.00,,,0.00,WUHU216HW,2013-07-21 20:01:00,
2013-07-21 16:06:00,78.2,61.7,30.22,ENE,68,6.0,8.9,55,0.00,,,0.00,WUHU216HW,2013-07-21 20:06:00,
2013-07-21 16:11:00,78.9,60.8,30.22,ENE,68,7.6,7.6,54,0.00,,,0.00,WUHU216HW,2013-07-21 20:11:00,
2013-07-21 16:16:00,78.6,60.5,30.22,ENE,68,7.1,7.8,54,0.00,,,0.00,WUHU216HW,2013-07-21 20:16:00,
2013-07-21 16:21:00,78.8,61.2,30.22,NE,45,7.3,8.5,54,0.00,,,0.00,WUHU216HW,2013-07-21 20:21:00,
2013-07-21 16:22:00,78.8,60.7,30.22,NE,45,7.3,8.5,54,0.00,,,0.00,WUHU216HW,2013-07-21 20:22:00,
2013-07-21 16:27:00,77.3,60.3,30.22,ENE,68,8.0,8.5,56,0.00,,,0.00,WUHU216HW,2013-07-21 20:27:00,
2013-07-21 16:32:00,75.0,58.7,30.22,ENE,68,6.2,8.0,57,0.00,,,0.00,WUHU216HW,2013-07-21 20:32:00,
2013-07-21 16:38:00,74.6,59.3,30.22,ENE,68,6.7,7.6,59,0.00,,,0.00,WUHU216HW,2013-07-21 20:38:00,
2013-07-21 16:43:00,75.9,60.0,30.22,ENE,68,4.6,8.0,58,0.00,,,0.00,WUHU216HW,2013-07-21 20:43:00,
2013-07-21 16:48:00,78.4,61.4,30.21,ENE,68,4.0,8.0,56,0.00,,,0.00,WUHU216HW,2013-07-21 20:48:00,
2013-07-21 16:53:00,79.8,61.7,30.21,ENE,68,6.2,8.0,54,0.00,,,0.00,WUHU216HW,2013-07-21 20:53:00,
2013-07-21 16:58:00,80.4,61.1,30.21,ENE,68,9.8,9.8,52,0.00,,,0.00,WUHU216HW,2013-07-21 20:58:00,
2013-07-21 17:03:00,80.4,61.1,30.21,ENE,68,6.9,9.8,52,0.00,,,0.00,WUHU216HW,2013-07-21 21:03:00,
2013-07-21 17:08:00,80.4,61.1,30.20,NE,45,6.0,8.9,52,0.00,,,0.00,WUHU216HW,2013-07-21 21:08:00,
2013-07-21 17:13:00,80.7,60.9,30.20,ENE,68,8.0,8.9,51,0.00,,,0.00,WUHU216HW,2013-07-21 21:13:00,
2013-07-21 17:18:00,80.7,60.9,30.21,NE,45,6.7,8.7,51,0.00,,,0.00,WUHU216HW,2013-07-21 21:18:00,
2013-07-21 17:23:00,80.2,60.4,30.21,ENE,68,6.0,8.0,51,0.00,,,0.00,WUHU216HW,2013-07-21 21:23:00,
2013-07-21 17:28:00,78.6,59.5,30.20,NE,45,6.0,8.0,52,0.00,,,0.00,WUHU216HW,2013-07-21 21:28:00,
2013-07-21 17:33:00,76.8,58.8,30.20,NE,45,7.1,8.2,54,0.00,,,0.00,WUHU216HW,2013-07-21 21:33:00,
2013-07-21 17:38:00,75.7,58.9,30.21,NE,45,6.9,8.7,56,0.00,,,0.00,WUHU216HW,2013-07-21 21:38:00,
2013-07-21 17:44:00,75.2,59.4,30.20,NE,45,8.9,8.9,58,0.00,,,0.00,WUHU216HW,2013-07-21 21:44:00,
2013-07-21 17:49:00,75.5,59.7,30.20,NE,45,8.2,8.9,58,0.00,,,0.00,WUHU216HW,2013-07-21 21:49:00,
2013-07-21 17:54:00,75.7,59.4,30.20,North,0,0.0,8.9,57,0.00,,,0.00,WUHU216HW,2013-07-21 21:54:00,
2013-07-21 17:59:00,76.1,59.7,30.20,NE,45,8.9,8.9,57,0.00,,,0.00,WUHU216HW,2013-07-21 21:59:00,
2013-07-21 18:04:00,76.1,60.2,30.20,NE,45,7.8,8.9,58,0.00,,,0.00,WUHU216HW,2013-07-21 22:04:00,
2013-07-21 18:09:00,76.4,60.0,30.20,NE,45,6.9,8.9,57,0.00,,,0.00,WUHU216HW,2013-07-21 22:09:00,
2013-07-21 18:14:00,77.1,60.2,30.20,ENE,68,5.8,6.9,56,0.00,,,0.00,WUHU216HW,2013-07-21 22:14:00,
2013-07-21 18:19:00,77.5,60.0,30.20,ENE,68,6.4,7.1,55,0.00,,,0.00,WUHU216HW,2013-07-21 22:19:00,
2013-07-21 18:24:00,77.1,59.7,30.19,NE,45,5.8,8.0,55,0.00,,,0.00,WUHU216HW,2013-07-21 22:24:00,
2013-07-21 18:29:00,75.7,58.9,30.20,NE,45,7.8,8.0,56,0.00,,,0.00,WUHU216HW,2013-07-21 22:29:00,
2013-07-21 18:34:00,73.0,58.3,30.19,ENE,68,6.4,7.8,60,0.00,,,0.00,WUHU216HW,2013-07-21 22:34:00,
2013-07-21 18:39:00,71.2,57.1,30.19,NE,45,5.1,6.4,61,0.00,,,0.00,WUHU216HW,2013-07-21 22:39:00,
2013-07-21 18:44:00,70.3,57.1,30.20,NE,45,6.0,6.4,63,0.00,,,0.00,WUHU216HW,2013-07-21 22:44:00,
2013-07-21 18:50:00,69.4,57.5,30.19,NE,45,5.1,9.1,66,0.00,,,0.00,WUHU216HW,2013-07-21 22:50:00,
2013-07-21 18:55:00,68.5,56.6,30.19,NE,45,6.2,9.1,66,0.00,,,0.00,WUHU216HW,2013-07-21 22:55:00,
2013-07-21 19:00:00,67.8,56.8,30.18,NE,45,6.7,6.7,68,0.00,,,0.00,WUHU216HW,2013-07-21 23:00:00,
2013-07-21 19:05:00,67.1,56.5,30.18,NE,45,5.8,6.7,69,0.00,,,0.00,WUHU216HW,2013-07-21 23:05:00,
2013-07-21 19:10:00,66.7,56.6,30.18,NE,45,6.2,6.2,70,0.00,,,0.00,WUHU216HW,2013-07-21 23:10:00,
2013-07-21 19:15:00,66.3,56.6,30.18,NE,45,6.4,6.4,71,0.00,,,0.00,WUHU216HW,2013-07-21 23:15:00,
2013-07-21 19:20:00,66.0,56.6,30.19,ENE,68,6.7,6.7,72,0.00,,,0.00,WUHU216HW,2013-07-21 23:20:00,
2013-07-21 19:25:00,65.8,56.5,30.18,NE,45,6.0,6.7,72,0.00,,,0.00,WUHU216HW,2013-07-21 23:25:00,
2013-07-21 19:30:00,65.8,56.9,30.18,ENE,68,3.8,7.6,73,0.00,,,0.00,WUHU216HW,2013-07-21 23:30:00,
2013-07-21 19:35:00,65.8,56.9,30.19,NE,45,4.6,7.6,73,0.00,,,0.00,WUHU216HW,2013-07-21 23:35:00,
2013-07-21 19:40:00,66.0,57.0,30.19,East,90,3.1,6.0,73,0.00,,,0.00,WUHU216HW,2013-07-21 23:40:00,
2013-07-21 19:45:00,66.0,57.4,30.19,East,90,6.7,6.7,74,0.00,,,0.00,WUHU216HW,2013-07-21 23:45:00,
2013-07-21 19:51:00,65.8,56.9,30.19,ESE,113,2.2,6.7,73,0.00,,,0.00,WUHU216HW,2013-07-21 23:51:00,
2013-07-21 19:56:00,65.3,56.9,30.19,ESE,113,6.7,6.7,74,0.00,,,0.00,WUHU216HW,2013-07-21 23:56:00,
2013-07-21 20:01:00,65.3,56.7,30.19,ESE,113,5.3,6.7,74,0.00,,,0.00,WUHU216HW,2013-07-22 00:01:00,
2013-07-21 20:06:00,65.1,56.9,30.19,ESE,113,4.2,6.9,75,0.00,,,0.00,WUHU216HW,2013-07-22 00:06:00,
2013-07-21 20:11:00,64.9,56.8,30.20,ESE,113,2.2,6.9,75,0.00,,,0.00,WUHU216HW,2013-07-22 00:11:00,
2013-07-21 20:16:00,64.9,56.8,30.19,SE,135,6.2,6.7,75,0.00,,,0.00,WUHU216HW,2013-07-22 00:16:00,
2013-07-21 20:21:00,64.7,57.0,30.20,ESE,113,6.7,6.7,76,0.00,,,0.00,WUHU216HW,2013-07-22 00:21:00,
2013-07-21 20:26:00,64.7,57.0,30.19,ENE,68,4.4,6.7,76,0.00,,,0.00,WUHU216HW,2013-07-22 00:26:00,
2013-07-21 20:31:00,64.5,56.8,30.20,SE,135,4.2,5.5,76,0.00,,,0.00,WUHU216HW,2013-07-22 00:31:00,
2013-07-21 20:36:00,64.5,57.1,30.20,ESE,113,3.1,5.5,77,0.00,,,0.00,WUHU216HW,2013-07-22 00:36:00,
2013-07-21 20:41:00,64.5,56.8,30.20,SE,135,5.1,6.2,76,0.00,,,0.00,WUHU216HW,2013-07-22 00:41:00,
2013-07-21 20:46:00,64.5,56.8,30.19,ESE,113,4.2,6.2,76,0.00,,,0.00,WUHU216HW,2013-07-22 00:46:00,
2013-07-21 20:51:00,64.5,57.1,30.20,ESE,113,4.9,5.1,77,0.00,,,0.00,WUHU216HW,2013-07-22 00:51:00,
2013-07-21 20:56:00,64.5,56.8,30.20,ESE,113,5.3,5.3,76,0.00,,,0.00,WUHU216HW,2013-07-22 00:56:00,
2013-07-21 21:01:00,64.5,57.1,30.19,ESE,113,5.1,6.2,77,0.00,,,0.00,WUHU216HW,2013-07-22 01:01:00,
2013-07-21 21:07:00,64.5,57.1,30.20,ESE,113,3.8,6.2,77,0.00,,,0.00,WUHU216HW,2013-07-22 01:07:00,
2013-07-21 21:12:00,64.5,57.1,30.20,SE,135,4.4,4.6,77,0.00,,,0.00,WUHU216HW,2013-07-22 01:12:00,
2013-07-21 21:17:00,64.2,56.8,30.20,ESE,113,4.4,6.0,77,0.00,,,0.00,WUHU216HW,2013-07-22 01:17:00,
2013-07-21 21:22:00,64.2,57.2,30.20,SE,135,6.0,6.0,78,0.00,,,0.00,WUHU216HW,2013-07-22 01:22:00,
2013-07-21 21:27:00,64.2,57.2,30.20,SE,135,6.9,6.9,78,0.00,,,0.00,WUHU216HW,2013-07-22 01:27:00,
2013-07-21 21:32:00,64.2,57.2,30.20,SE,135,7.3,7.3,78,0.00,,,0.00,WUHU216HW,2013-07-22 01:32:00,
2013-07-21 21:37:00,64.5,57.5,30.20,SE,135,5.3,7.3,78,0.00,,,0.00,WUHU216HW,2013-07-22 01:37:00,
2013-07-21 21:42:00,64.5,57.9,30.20,SE,135,5.1,6.7,79,0.00,,,0.00,WUHU216HW,2013-07-22 01:42:00,
2013-07-21 21:47:00,64.5,57.5,30.20,ESE,113,4.6,8.0,78,0.00,,,0.00,WUHU216HW,2013-07-22 01:47:00,
2013-07-21 21:52:00,64.5,57.9,30.19,ESE,113,5.1,8.0,79,0.00,,,0.00,WUHU216HW,2013-07-22 01:52:00,
2013-07-21 21:57:00,64.5,57.9,30.20,ESE,113,5.5,5.5,79,0.00,,,0.00,WUHU216HW,2013-07-22 01:57:00,
2013-07-21 22:02:00,64.5,57.5,30.19,SE,135,5.3,5.5,78,0.00,,,0.00,WUHU216HW,2013-07-22 02:02:00,
2013-07-21 22:07:00,64.7,58.0,30.19,SE,135,6.0,6.7,79,0.00,,,0.00,WUHU216HW,2013-07-22 02:07:00,
2013-07-21 22:13:00,64.7,58.0,30.20,SE,135,4.0,6.7,79,0.00,,,0.00,WUHU216HW,2013-07-22 02:13:00,
2013-07-21 22:18:00,64.7,58.0,30.19,SE,135,8.0,8.0,79,0.00,,,0.00,WUHU216HW,2013-07-22 02:18:00,
2013-07-21 22:23:00,64.7,58.0,30.19,SE,135,3.8,8.0,79,0.00,,,0.00,WUHU216HW,2013-07-22 02:23:00,
2013-07-21 22:28:00,64.7,58.0,30.19,SSE,158,8.2,8.2,79,0.00,,,0.00,WUHU216HW,2013-07-22 02:28:00,
2013-07-21 22:33:00,64.7,58.0,30.19,ESE,113,8.5,8.5,79,0.00,,,0.00,WUHU216HW,2013-07-22 02:33:00,
2013-07-21 22:38:00,64.9,58.2,30.19,ESE,113,8.2,8.5,79,0.00,,,0.00,WUHU216HW,2013-07-22 02:38:00,
2013-07-21 22:43:00,64.9,58.2,30.19,SE,135,6.7,8.2,79,0.00,,,0.00,WUHU216HW,2013-07-22 02:43:00,
2013-07-21 22:48:00,64.9,58.2,30.20,SE,135,6.9,8.2,79,0.00,,,0.00,WUHU216HW,2013-07-22 02:48:00,
2013-07-21 22:53:00,64.9,58.2,30.20,ESE,113,5.5,6.9,79,0.00,,,0.00,WUHU216HW,2013-07-22 02:53:00,
2013-07-21 22:58:00,64.9,58.2,30.19,ESE,113,4.4,6.2,79,0.00,,,0.00,WUHU216HW,2013-07-22 02:58:00,
2013-07-21 23:04:00,64.9,58.2,30.19,SE,135,4.4,5.8,79,0.00,,,0.00,WUHU216HW,2013-07-22 03:04:00,
2013-07-21 23:09:00,64.9,58.2,30.19,ESE,113,4.6,6.9,79,0.00,,,0.00,WUHU216HW,2013-07-22 03:09:00,
2013-07-21 23:14:00,64.9,58.2,30.19,East,90,4.6,6.9,79,0.00,,,0.00,WUHU216HW,2013-07-22 03:14:00,
2013-07-21 23:19:00,64.9,58.2,30.18,ESE,113,7.6,7.6,79,0.00,,,0.00,WUHU216HW,2013-07-22 03:19:00,
2013-07-21 23:24:00,64.9,58.6,30.18,East,90,8.0,8.0,80,0.00,,,0.00,WUHU216HW,2013-07-22 03:24:00,
2013-07-21 23:29:00,64.9,58.6,30.18,ESE,113,7.8,8.0,80,0.00,,,0.00,WUHU216HW,2013-07-22 03:29:00,
2013-07-21 23:34:00,65.1,58.4,30.19,ESE,113,7.6,9.1,79,0.00,,,0.00,WUHU216HW,2013-07-22 03:34:00,
2013-07-21 23:39:00,65.1,58.8,30.19,SE,135,3.5,9.1,80,0.00,,,0.00,WUHU216HW,2013-07-22 03:39:00,
2013-07-21 23:44:00,65.1,58.4,30.19,ESE,113,6.9,7.6,79,0.00,,,0.00,WUHU216HW,2013-07-22 03:44:00,
2013-07-21 23:49:00,65.1,58.4,30.19,ESE,113,6.2,7.3,80,0.00,,,0.00,WUHU216HW,2013-07-22 03:49:00,
2013-07-21 23:55:00,65.1,58.8,30.18,ESE,113,7.6,7.6,80,0.00,,,0.00,WUHU216HW,2013-07-22 03:55:00,